This is the latest recevied weather packets stored in our database for station/object N1IJV-10. If no packets are shown the sender has not sent any weather packets the latest 10 day(s).
| Time | Temp. | Humidity | Pressure | Rain* | Wind** | Luminosity | Snow |
|---|---|---|---|---|---|---|---|
| 1778202642 | 10.56° C | 74% | 1009.3 hPa | 0 mm | - | 0 W/m² | - |
| 1778202338 | 11.11° C | 72% | 1009.1 hPa | 0 mm | - | 0 W/m² | - |
| 1778202036 | 11.11° C | 71% | 1009 hPa | 0 mm | - | 0 W/m² | - |
| 1778201732 | 11.67° C | 70% | 1009.1 hPa | 0 mm | - | 0 W/m² | - |
| 1778201429 | 11.67° C | 68% | 1008.9 hPa | 0 mm | - | 3 W/m² | - |
| 1778201125 | 12.22° C | 68% | 1008.8 hPa | 0 mm | - | 3 W/m² | - |
| 1778200822 | 12.22° C | 67% | 1008.9 hPa | 0 mm | - | 6 W/m² | - |
| 1778200518 | 12.78° C | 65% | 1008.9 hPa | 0 mm | - | 8 W/m² | - |
| 1778200216 | 13.33° C | 65% | 1008.9 hPa | 0 mm | - | 9 W/m² | - |
| 1778199911 | 13.33° C | 61% | 1009 hPa | 0 mm | - | 12 W/m² | - |
| 1778199609 | 13.33° C | 63% | 1008.9 hPa | 0 mm | - | 15 W/m² | - |
| 1778199305 | 13.89° C | 61% | 1008.9 hPa | 0 mm | - | 15 W/m² | - |
| 1778199001 | 13.89° C | 60% | 1008.8 hPa | 0 mm | - | 17 W/m² | - |
| 1778198697 | 14.44° C | 59% | 1009 hPa | 0 mm | - | 22 W/m² | - |
| 1778198394 | 14.44° C | 58% | 1008.9 hPa | 0 mm | - | 22 W/m² | - |
| 1778198091 | 14.44° C | 57% | 1008.8 hPa | 0 mm | - | 22 W/m² | - |
| 1778197789 | 14.44° C | 59% | 1008.7 hPa | 0 mm | - | 24 W/m² | - |
| 1778197485 | 14.44° C | 60% | 1008.8 hPa | 0 mm | - | 27 W/m² | - |
| 1778197182 | 14.44° C | 59% | 1008.7 hPa | 0 mm | - | 39 W/m² | - |
| 1778196878 | 13.89° C | 64% | 1008.9 hPa | 0 mm | - | 57 W/m² | - |
| 1778196577 | 13.33° C | 63% | 1009 hPa | 0 mm | - | 65 W/m² | - |
| 1778196273 | 13.33° C | 62% | 1008.9 hPa | 0 mm | - | 33 W/m² | - |
| 1778195970 | 13.33° C | 63% | 1009 hPa | 0 mm | - | 27 W/m² | - |
| 1778195666 | 13.89° C | 61% | 1008.8 hPa | 0 mm | - | 43 W/m² | - |
| 1778195363 | 13.89° C | 62% | 1009 hPa | 0 mm | - | 52 W/m² | - |
* Rain latest hour (hover to see other rain measurements)
** Current wind speed in m/s (hover to see current wind gust speed)